Location: Dannhausen
(51.8650°N, 10.1026°E)
Time: 14:06:18
(UTC+00:00)

Cosmos 2237 Rocket - Pass Details

Date: 09 April 2020
Orbit: 833 x 851 km, 71.0° (Epoch: 02 June)

Event Time Altitude Azimuth Distance (km) Brightness Sun altitude
Rises 23:35:16 0° 330° (NNW) 3,409 6.1 -30.0°
Reaches altitude 10° 23:37:58 10° 340° (NNW) 2,474 5.4 -30.0°
Maximum altitude 23:43:06 34° 44° (NE) 1,373 3.6 -29.9°
Enters shadow 23:45:52 22° 92° (E) 1,767 3.9 -29.9°
